Location: Agus-us
(14.2247°N, 120.8593°E)
Time: 18:44:27
(UTC+00:00)

NOAA 12 - Pass Details

Date: 13 December 2025
Orbit: 792 x 813 km, 98.6° (Epoch: 20 January)

Event Time Altitude Azimuth Distance (km) Brightness Sun altitude
Rises 20:51:30 0° 9° (N) 3,297 7.2 -19.0°
Reaches altitude 10° 20:53:51 10° 7° (N) 2,364 6.4 -18.5°
Maximum altitude 20:59:02 73° 283° (WNW) 828 3.9 -17.3°
Drops below altitude 10° 21:04:13 10° 199° (SSW) 2,352 6.5 -16.1°
Sets 21:06:32 0° 197° (SSW) 3,279 7.3 -15.6°
